Regional Weather Roundup
Issued by NWS Wakefield, VA

Home | Current Version | Previous Version | Text Only | Print | Product List | Glossary On
Versions: 1 2 3 4 5 6 7 8 9 10 11 12 13 14 15 16 17 18 19 20 21 22 23 24 25 26 27
000
ASUS41 KAKQ 250215
RWRAKQ

REGIONAL WEATHER ROUNDUP
NATIONAL WEATHER SERVICE WAKEFIELD VA
900 PM EST FRI NOV 24 2017

Note: "fair" indicates few or no clouds below 12,000 feet with no
significant weather and/or obstructions to visibility. * = Denotes
station may not report precipitation (e.g., rain,snow,etc.),
thunder or fog.

VAZ042-051-052>054-056-250300-
NORTHERN VIRGINIA

CITY           SKY/WX    TMP DP  RH WIND       PRES   REMARKS
WASH NATIONAL  CLEAR     43  33  68 S8        29.98S
DULLES         CLEAR     42  31  64 S8        29.95F
FORT BELVOIR   CLEAR     34  29  82 CALM      29.97S
QUANTICO       CLEAR     46  36  68 S9        29.98F
FREDERICKSBRG* CLEAR     36  32  86 CALM      29.97S
STAFFORD*      CLEAR     33  29  87 CALM      30.00F
WARRENTON      NOT AVBL
CULPEPER*      CLEAR     32  27  80 CALM      29.96F
MANASSAS*      CLEAR     34  29  82 CALM      29.96F
LEESBURG*      CLEAR     43  32  65 S8        29.95F
WINCHESTER     CLEAR     41  28  60 S3        29.90S
FRONT ROYAL*   CLEAR     43  27  52 S5        29.89F
LURAY*         CLEAR     36  30  80 CALM      29.91S
$$

VAZ048-049-060>072-079>083-250300-
CENTRAL AND SOUTH CENTRAL VIRGINIA

CITY           SKY/WX    TMP DP  RH WIND       PRES   REMARKS
RICHMOND       CLEAR     38  30  73 SE5       29.98S
CHESTERFIELD*  NOT AVBL
PETERSBURG*    CLEAR    N/A N/A N/A CALM      30.00S
HANOVER        CLEAR     35  29  78 CALM      29.99F
TAPPAHANNOCK*    N/A    N/A N/A N/A MISG        N/A
QUINTON*       FAIR      36  31  83 CALM      29.98S
CHARLOTTSVILLE CLEAR     45  29  53 S5        29.95S
GORDONSVILLE*  CLEAR     35  30  85 SW3       29.96S
ORANGE*        CLEAR     32  28  86 CALM      29.96S
LOUISA*        CLEAR     39  26  59 S6        30.00F
BUMPASS*       FAIR      36  30  80 CALM      29.97S
FARMVILLE*     CLEAR     34  33  95 CALM      29.96F
CREWE*         FAIR      32  32 100 CALM      29.98S
FORT PICKETT*  FAIR      35  28  73 CALM      29.98S
CHASE CITY*    FAIR      35  27  71 CALM      29.98F
CLARKSVILLE*   FAIR      34  32  93 CALM      29.97F
SOUTH HILL*    CLEAR     33  32  97 CALM      30.04S
LAWRENCEVILLE* FAIR      35  32  88 CALM      29.98F
EMPORIA*       CLEAR     32  30  93 CALM      30.01R
$$

VAZ088>098-250300-
SOUTHEAST VIRGINIA

CITY           SKY/WX    TMP DP  RH WIND       PRES   REMARKS
NORFOLK        CLEAR     42  40  92 CALM      29.97F
VIRGINIA BEACH CLEAR     37  34  89 CALM      29.97S
NORFOLK NAVAL  CLEAR     39  36  89 CALM      29.99S
WEST POINT*    CLEAR     34  32  92 CALM      30.01S
SALUDA*        FAIR      35  34  98 CALM      29.98F
NEWPORT NEWS   CLEAR     33  32  96 CALM      29.99S
LANGLEY AFB    CLEAR     36  34  93 CALM      29.98S
FORT EUSTIS    CLEAR     37  34  87 CALM      29.96F
WILLIAMSBURG*  CLEAR     37  36  93 CALM      29.99F
HR EXEC AP*    NOT AVBL
FRANKLIN*      CLEAR     34  33  94 CALM      29.99S
US460-WAKEFLD  CLEAR     34  32  92 CALM      29.99S
$$

VAZ020-022-025-037-045-250300-
WEST CENTRAL AND SOUTHWEST VIRGINIA

CITY           SKY/WX    TMP DP  RH WIND       PRES   REMARKS
STAUNTON*      CLEAR     37  26  62 SW5       29.94S
WAYNESBORO*    CLEAR     39  25  56 CALM      29.93F
HOT SPRINGS VA CLEAR     44   9  23 CALM      29.93S
LYNCHBURG      CLEAR     34  27  75 CALM      29.96S
DANVILLE       CLEAR     35  32  88 CALM      29.98S
SOUTH BOSTON*  FAIR      33  24  71 CALM      29.98F
MARTINSVILLE   CLEAR     32  28  83 CALM      30.00R
ROANOKE        CLEAR     45  28  51 CALM      29.97S
BLACKSBURG     CLEAR     37  27  67 CALM      29.98S
DUBLIN*        CLEAR     40  28  62 CALM      29.96S
MARION*        CLEAR     38  30  72 CALM      29.97R
HILLSVILLE*    CLEAR     43  31  63 S7        29.94S
RICHLANDS*     FAIR      48  21  35 S5        29.92S
WISE*          PTCLDY    46  32  57 S6        29.92S
ABINGDON*      PTCLDY    43  30  59 CALM      29.94R
$$

MDZ021>025-VAZ099-100-250300-
SOUTHERN MARYLAND AND THE DELMARVA PENINSULA

CITY           SKY/WX    TMP DP  RH WIND       PRES   REMARKS
PATUXENT RIVER CLEAR     43  35  73 S6        29.98F
BAY BRIDGE APT CLEAR     45  30  57 S6        29.98S
LEONARDTOWN    CLEAR     41  32  70 CALM      30.00S
DOVER          CLEAR     38  36  93 SE7       29.98F
GEORGETOWN     CLEAR     35  31  85 SE3       30.00F
EASTON         CLEAR     39  28  65 CALM      30.02F
CAMBRIDGE      CLEAR     36  34  93 CALM      29.99S
SALISBURY      CLEAR     33  31  92 CALM      29.99F
OCEAN CITY     CLEAR     34  33  96 CALM      29.99F
WALLOPS ISLAND CLEAR     35  34  96 NW3       29.99F
ACCOMACK*      CLEAR     34  34  98 CALM      29.98F FOG
$$

NCZ012>017-030>032-250300-
NORTH CENTRAL AND EASTERN NORTH CAROLINA

CITY           SKY/WX    TMP DP  RH WIND       PRES   REMARKS
ROANOKE RAPIDS FAIR      34  32  93 CALM      29.99R
RALEIGH        PTCLDY    34  26  72 CALM      29.98S
ELIZABETH CITY CLEAR     45  43  93 N3        29.97F
AHOSKIE*       CLEAR     34  33  96 CALM      29.99R
EDENTON*       CLEAR     45  40  83 CALM      29.97F
CURRITUCK*     CLEAR     39  39  97 CALM      29.97F
KILL DEVIL HLS CLEAR     53  46  76 CALM      29.94F
MANTEO         CLEAR     51  47  84 NE7       29.95F
CAPE HATTERAS  CLEAR     55  51  86 VRB5      29.92F
TARBORO*       NOT AVBL
GOLDSBORO      CLOUDY    40  33  76 CALM      29.95S
WASHINGTON     CLEAR     44  39  81 E3        29.97F
GREENVILLE     CLOUDY    37  36  93 CALM      29.98F
NEW BERN       CLEAR     46  42  86 N7        29.96F
WILMINGTON     CLOUDY    51  38  60 N3        29.95R
$$

VAZ048-250300-
ELSEWHERE

CITY           SKY/WX    TMP DP  RH WIND       PRES   REMARKS
HARRISBURG PA  CLEAR     39  29  67 E3        29.93S
BALTIMORE      CLEAR     40  34  79 S3        29.97S
ANNAPOLIS      CLEAR     46  35  65 S6        29.97F
ANDREWS AFB    CLEAR     38  27  65 S7        29.96S
PHILADELPHIA   CLEAR     43  30  60 S10       29.99S
HENDERSON NC   CLEAR     33  28  83 CALM      29.98F
GREENSBORO     CLEAR     45  32  60 W3        29.96S
ROCKY MOUNT    CLEAR     35  34  96 CALM      29.99R
$$

VAZ100-250300-
MARINE

STATION/POSITION TIME  TEMP    WIND        PRES    WAVE   SWELL
                       AIR SEA DIR/SP/G            HT/PER HT/PER
                 (UTC) (F)     (DEG/KT/KT) (MB)    (FT/S) (FT/S)
BRANDYWINE LGT   0142   49     210/ 12/ 12 1015.9F
CAPE MAY NJ      0148   47 50  170/  4/  5 1015.1F
LEWES DE         0142   43 50  190/  2/  4 1015.4F
15NM E FENWICK I 0150   52 57  160/  6/ 10 1016.0F   3/10   2/10
OCEAN-CITY-INLET 0142   46 50   CALM  /  1 1015.9F
WACHAPREAGUE VA  0142   38 49  290/  1/  2 1015.2F
THOMAS POINT MD  0200   49 52  180/ 16/ 17   N/A
GOOSES REEF MD   0150   49     230/ 12/ 14 1010.9S
COVE POINT MD    0142   46     220/  8/  9 1015.9F
SOLOMONS ISLAND  0142   45 53  220/  5/  5 1015.0F
BISHOPS HEAD MD  0142   47 48  140/  5/  6 1015.7F
PINEY POINT MD   0142          200/  8/  8   N/A
POTOMAC MD       0150   48     170/  8/ 10 1014.7F
CAMBRIDGE MD     0142   40 49              1016.1F
LEWISETTA VA     0142   43 48  240/  1/  2 1015.4F
RAPPAHANNOCK LGT 0142           50/  3/  4 1015.9F
STINGRAY PT      0150   49     170/  4/  6 1015.6F
YORK RVR RNG VA  0142   49      90/  3/  4 1015.7F
YORKTOWN VA      0142   43 53  230/  1/  1 1015.0F
JAMESTOWN VA     0150           70/  2/  2   N/A
DOMINION TERM VA 0142   47      30/  1/  3 1015.4F
KIPTOPEKE VA     0142      52   50/  5/  5   N/A
CAPE HENRY VA    0142   52      90/  5/  6   N/A
WILLOUBY STN VA  0142   50      50/  2/  2 1014.9F
S CRANEY ISL VA  0142   47      10/  2/  2 1015.0S
CAPE HENRY BUOY  0200      59                N/A     3/10   2/11
1ST LANDING BUOY 0150   52     110/  4/  6 1015.1F
CAPE CHARLES BUO 0151      58                N/A     3/ 9   2/11
64NM E OF VA BCH 0150   59 61   90/ 10/ 12 1014.6F   4/10   3/10
DUCK PIER NC     0142   56 56   50/ 10/ 11 1013.8F
44100 DUCK FRF   0145      60                N/A     4/ 9   2/11
44056 DUCK FRF   0200      59                N/A     3/10   2/11
OREGON INLET NC  0142   57 55   20/  9/ 12 1013.8F
HATTERAS NC      0142   56 58  360/ 14/ 16 1013.0F
DIAMOND SHLS NC  0200   65 70   10/ 17/ 21 1012.5
CAPE LOOKOUT NC  0200           10/ 11/ 14 1013.3F
$$




USA.gov is the U.S. government's official web portal to all federal, state and local government web resources and services.